STARLINK-35152 (65530 NORAD) Tracking and Keplerian Element Data

This shows tracking and keplerian element data for the satellite.

Feedback or suggestion? Click here.




ElementValue
Catalog65530
NameSTARLINK-35152
Epoch Orbit1716
Epoch Day354.15124753
Epoch Year2025
RAAN61.4111
Inclination97.6035
Eccentricity0.0001008
Argument of Perigee85.9294
Mean Anonmoly274.2048
Mean Motion15.05651068
Decay Rate1.766E-05
L11 65530U 25200L 25354.15124753 .00001766 00000+0 12655-3 0 9996
L22 65530 97.6035 61.4111 0001008 85.9294 274.2048 15.05651068 17160



Live tracking and technical data element details for STARLINK-35152 (NORAD 65530). STARLINK-35152 can be tracked NOW for your location showing map with azimuth and elevation plus other details from your city location.







IsCatalogInMostPopularTable: catalog: 65530, numindb: 3
Update: records affected: 1



GetName: 65530 STARLINK-35152

Hit Count: updated at: Sun, 08 Feb 2026 17:26:32 GMT